DMSP 5D-2 F13 DEB, 40479

Orbit data source: Space-Track

DMSP 5D-2 F13 DEB, 40479 is space debris in SSO originally from a launch on Fri, 24 Mar 1995 UTC launched from the Air Force Western Test Range (AFWTR). Debris objects in space refer to the collection of defunct objects orbiting the Earth. Examples of debris include non-operational satellites, rocket bodies, and fragments generated from explosions, collisions, or faulty payload assembly.

Loading next visibility...
Identifier
40479, 1995-015BX
Orbit
SSO
Country
Flag of USUS
Related business
Manufacturer
Unknown
Mission
Spacecraft
Bus & Motor
Unknown
Mass
Unknown
Launch date (UTC)
1995-03-24 (31 years ago)
Launch vehicle
Unknown
Launch site
Air Force Western Test Range (AFWTR)
Object type
Payload
Rocket body
Debris
Shape & HBR
Unknown shape, 0.1 m
Radar Cross Section
Small (<0.1 m²)

Expand to show TLE details & history
Last TLE update: 3 days ago

TLE from 3 days ago
0 DMSP 5D-2 F13 DEB
1 40479U 95015BX  26032.99652695  .00001121  00000-0  52593-3 0  9990
2 40479  98.7660  53.8646 0004219  73.5931 286.5710 14.22155499563867
Epoch: 2026-02-01T23:54Z
TLE epoch observation values (Epoch: 2026-02-01T23:54:59.928Z)
Latitude
-0.00003°
Longitude
-77.08325°
Altitude
820.123 km
Speed
7.444 km/s
True Right ascension
03h 35m 27s
True Declination
0° 00' 00"
Sunlit
Object was in daylight at epoch
Visualization orbit readout
Latitude
Unknown
Longitude
Unknown
Altitude
Unknown
Speed
Unknown
Apparent Right ascension
Unknown
Apparent Declination
Unknown
Sunlit
N/A
Visualization observer readout
Local Sidereal Time
01:00:07
Azimuth
Unknown
Elevation
Unknown
Doppler factor
Unknown
Orbital elements
Apogee altitude
818.266 km
Perigee altitude
812.196 km
Semi-major axis
7,193.368 km
Eccentricity
0.00042
Inclination
98.766°
RAAN
53.8646°
Arg. of periapsis
73.5931°
True anomaly
286.52465°
Mean anomaly
286.571°
Eccentric anomaly
286.54783°
Mean motion
3.5575 °/min
Orbital period
101.19 mins
BSTAR
0.00052593
Loading maneuver chart data...
Computing Atmospheric mass density...

Documentation

Showing up to 5 results
|